Time,TemperatureF,DewpointF,PressureIn,WindDirection,WindDirectionDegrees,WindSpeedMPH,WindSpeedGustMPH,Humidity,HourlyPrecipIn,Conditions,Clouds,dailyrainin,SoftwareType,DateUTC
2013-01-23 00:00:00,6.7,-3.0,30.16,WNW,288,5.0,12.0,66,0.00,,,0.00,weatherlink.com 1.10,2013-01-23 05:00:00,
2013-01-23 00:15:00,6.7,-3.0,30.16,WSW,257,7.0,14.0,66,0.00,,,0.00,weatherlink.com 1.10,2013-01-23 05:15:00,
2013-01-23 00:30:00,6.6,-2.0,30.16,West,263,5.0,11.0,67,0.00,,,0.00,weatherlink.com 1.10,2013-01-23 05:30:00,
2013-01-23 00:45:00,6.5,-2.0,30.16,WSW,258,8.0,12.0,68,0.00,,,0.00,weatherlink.com 1.10,2013-01-23 05:45:00,
2013-01-23 01:01:00,6.6,-2.0,30.16,West,274,2.0,10.0,68,0.00,,,0.00,weatherlink.com 1.10,2013-01-23 06:01:00,
2013-01-23 01:16:00,6.6,-2.0,30.16,WSW,250,5.0,13.0,68,0.00,,,0.00,weatherlink.com 1.10,2013-01-23 06:16:00,
2013-01-23 01:46:00,6.7,-2.0,30.16,West,269,7.0,11.0,69,0.00,,,0.00,weatherlink.com 1.10,2013-01-23 06:46:00,
2013-01-23 02:01:00,6.7,-1.0,30.17,WNW,293,5.0,10.0,70,0.00,,,0.00,weatherlink.com 1.10,2013-01-23 07:01:00,
2013-01-23 02:16:00,6.8,-1.0,30.18,West,276,10.0,13.0,70,0.00,,,0.00,weatherlink.com 1.10,2013-01-23 07:16:00,
2013-01-23 02:31:00,6.9,-1.0,30.18,WNW,298,4.0,12.0,70,0.00,,,0.00,weatherlink.com 1.10,2013-01-23 07:31:00,
2013-01-23 03:01:00,6.8,-1.0,30.18,WNW,285,5.0,9.0,71,0.00,,,0.00,weatherlink.com 1.10,2013-01-23 08:01:00,
2013-01-23 03:16:00,6.8,-1.0,30.18,WNW,294,6.0,10.0,71,0.00,,,0.00,weatherlink.com 1.10,2013-01-23 08:16:00,
2013-01-23 03:31:00,6.8,-1.0,30.18,West,263,3.0,10.0,71,0.00,,,0.00,weatherlink.com 1.10,2013-01-23 08:31:00,
2013-01-23 03:46:00,6.9,-1.0,30.19,West,277,6.0,11.0,71,0.00,,,0.00,weatherlink.com 1.10,2013-01-23 08:46:00,
2013-01-23 04:01:00,6.9,-1.0,30.19,West,264,4.0,10.0,71,0.00,,,0.00,weatherlink.com 1.10,2013-01-23 09:01:00,
2013-01-23 04:16:00,6.8,-1.0,30.19,WNW,283,3.0,9.0,72,0.00,,,0.00,weatherlink.com 1.10,2013-01-23 09:16:00,
2013-01-23 05:02:00,6.7,0.0,30.20,West,274,4.0,12.0,73,0.00,,,0.00,weatherlink.com 1.10,2013-01-23 10:02:00,
2013-01-23 05:17:00,6.5,0.0,30.20,West,277,4.0,10.0,74,0.00,,,0.00,weatherlink.com 1.10,2013-01-23 10:17:00,
2013-01-23 05:32:00,6.4,0.0,30.20,WNW,290,6.0,10.0,74,0.00,,,0.00,weatherlink.com 1.10,2013-01-23 10:32:00,
2013-01-23 05:47:00,6.3,0.0,30.21,West,268,3.0,13.0,74,0.00,,,0.00,weatherlink.com 1.10,2013-01-23 10:47:00,
2013-01-23 06:02:00,6.2,0.0,30.21,WNW,296,7.0,11.0,75,0.00,,,0.00,weatherlink.com 1.10,2013-01-23 11:02:00,
2013-01-23 06:17:00,6.1,0.0,30.21,West,276,4.0,10.0,75,0.00,,,0.00,weatherlink.com 1.10,2013-01-23 11:17:00,
2013-01-23 06:32:00,5.9,0.0,30.21,WNW,290,4.0,11.0,76,0.00,,,0.00,weatherlink.com 1.10,2013-01-23 11:32:00,
2013-01-23 06:47:00,5.8,0.0,30.21,WNW,295,5.0,8.0,76,0.00,,,0.00,weatherlink.com 1.10,2013-01-23 11:47:00,
2013-01-23 07:02:00,5.7,0.0,30.21,West,267,4.0,7.0,77,0.00,,,0.00,weatherlink.com 1.10,2013-01-23 12:02:00,
2013-01-23 07:17:00,5.6,0.0,30.21,WSW,252,4.0,8.0,78,0.00,,,0.00,weatherlink.com 1.10,2013-01-23 12:17:00,
2013-01-23 07:32:00,5.4,0.0,30.22,WSW,255,5.0,8.0,78,0.00,,,0.00,weatherlink.com 1.10,2013-01-23 12:32:00,
2013-01-23 07:48:00,5.3,0.0,30.22,West,264,5.0,8.0,78,0.00,,,0.00,weatherlink.com 1.10,2013-01-23 12:48:00,
2013-01-23 08:03:00,5.8,0.0,30.23,WSW,256,4.0,6.0,78,0.00,,,0.00,weatherlink.com 1.10,2013-01-23 13:03:00,
2013-01-23 08:18:00,6.4,1.0,30.22,West,280,5.0,8.0,78,0.00,,,0.00,weatherlink.com 1.10,2013-01-23 13:18:00,
2013-01-23 08:33:00,6.9,1.0,30.23,WNW,301,4.0,10.0,76,0.00,,,0.00,weatherlink.com 1.10,2013-01-23 13:33:00,
2013-01-23 08:48:00,7.6,1.0,30.23,WNW,284,3.0,9.0,75,0.00,,,0.00,weatherlink.com 1.10,2013-01-23 13:48:00,
2013-01-23 09:03:00,8.1,1.0,30.23,WNW,290,8.0,11.0,73,0.00,,,0.00,weatherlink.com 1.10,2013-01-23 14:03:00,
2013-01-23 09:18:00,8.4,1.0,30.23,WSW,253,8.0,9.0,73,0.00,,,0.00,weatherlink.com 1.10,2013-01-23 14:18:00,
2013-01-23 09:33:00,8.8,2.0,30.23,West,264,4.0,10.0,72,0.00,,,0.00,weatherlink.com 1.10,2013-01-23 14:33:00,
2013-01-23 09:48:00,9.5,1.0,30.23,WNW,293,8.0,11.0,69,0.00,,,0.00,weatherlink.com 1.10,2013-01-23 14:48:00,
2013-01-23 10:03:00,9.9,2.0,30.23,WNW,284,8.0,12.0,69,0.00,,,0.00,weatherlink.com 1.10,2013-01-23 15:03:00,
2013-01-23 10:18:00,10.2,2.0,30.23,WNW,301,7.0,9.0,69,0.00,,,0.00,weatherlink.com 1.10,2013-01-23 15:18:00,
2013-01-23 10:33:00,10.6,2.0,30.22,WNW,303,4.0,8.0,67,0.00,,,0.00,weatherlink.com 1.10,2013-01-23 15:33:00,
2013-01-23 10:48:00,11.4,2.0,30.22,WNW,286,5.0,9.0,66,0.00,,,0.00,weatherlink.com 1.10,2013-01-23 15:48:00,
2013-01-23 11:03:00,11.8,1.0,30.22,NW,305,2.0,11.0,63,0.00,,,0.00,weatherlink.com 1.10,2013-01-23 16:03:00,
2013-01-23 11:19:00,11.8,1.0,30.21,SW,236,8.0,9.0,62,0.00,,,0.00,weatherlink.com 1.10,2013-01-23 16:19:00,
2013-01-23 11:34:00,12.3,1.0,30.20,WSW,246,8.0,10.0,61,0.00,,,0.00,weatherlink.com 1.10,2013-01-23 16:34:00,
2013-01-23 11:49:00,13.0,0.0,30.20,WNW,300,4.0,11.0,57,0.00,,,0.00,weatherlink.com 1.10,2013-01-23 16:49:00,
2013-01-23 12:04:00,13.4,1.0,30.19,WSW,257,3.0,10.0,57,0.00,,,0.00,weatherlink.com 1.10,2013-01-23 17:04:00,
2013-01-23 12:19:00,13.5,0.0,30.18,SW,235,9.0,12.0,54,0.00,,,0.00,weatherlink.com 1.10,2013-01-23 17:19:00,
2013-01-23 12:34:00,13.6,-1.0,30.17,WSW,238,6.0,12.0,52,0.00,,,0.00,weatherlink.com 1.10,2013-01-23 17:34:00,
2013-01-23 12:49:00,14.1,-1.0,30.17,West,259,7.0,9.0,51,0.00,,,0.00,weatherlink.com 1.10,2013-01-23 17:49:00,
2013-01-23 13:04:00,14.2,-2.0,30.16,West,276,2.0,12.0,49,0.00,,,0.00,weatherlink.com 1.10,2013-01-23 18:04:00,
2013-01-23 13:19:00,14.3,-1.0,30.16,West,269,5.0,11.0,50,0.00,,,0.00,weatherlink.com 1.10,2013-01-23 18:19:00,
2013-01-23 13:34:00,14.4,-1.0,30.15,WSW,250,7.0,14.0,50,0.00,,,0.00,weatherlink.com 1.10,2013-01-23 18:34:00,
2013-01-23 13:49:00,14.4,-2.0,30.15,WSW,242,6.0,11.0,49,0.00,,,0.00,weatherlink.com 1.10,2013-01-23 18:49:00,
2013-01-23 14:04:00,14.7,-1.0,30.14,WSW,256,8.0,9.0,50,0.00,,,0.00,weatherlink.com 1.10,2013-01-23 19:04:00,
2013-01-23 14:35:00,15.2,0.0,30.14,SSW,211,2.0,10.0,52,0.00,,,0.00,weatherlink.com 1.10,2013-01-23 19:35:00,
2013-01-23 14:50:00,14.9,2.0,30.14,WSW,252,5.0,11.0,56,0.00,,,0.00,weatherlink.com 1.10,2013-01-23 19:50:00,
2013-01-23 15:05:00,15.1,2.0,30.14,WSW,240,6.0,12.0,56,0.00,,,0.00,weatherlink.com 1.10,2013-01-23 20:05:00,
2013-01-23 15:20:00,15.0,4.0,30.14,West,269,6.0,11.0,61,0.00,,,0.00,weatherlink.com 1.10,2013-01-23 20:20:00,
2013-01-23 15:35:00,14.8,3.0,30.14,West,273,3.0,10.0,61,0.00,,,0.00,weatherlink.com 1.10,2013-01-23 20:35:00,
2013-01-23 15:50:00,14.8,3.0,30.14,WSW,252,3.0,8.0,59,0.00,,,0.00,weatherlink.com 1.10,2013-01-23 20:50:00,
2013-01-23 16:06:00,14.8,1.0,30.14,SSW,201,6.0,10.0,55,0.00,,,0.00,weatherlink.com 1.10,2013-01-23 21:06:00,
2013-01-23 16:20:00,14.8,1.0,30.13,WSW,237,7.0,10.0,55,0.00,,,0.00,weatherlink.com 1.10,2013-01-23 21:20:00,
2013-01-23 16:35:00,14.7,1.0,30.13,West,269,4.0,8.0,55,0.00,,,0.00,weatherlink.com 1.10,2013-01-23 21:35:00,
2013-01-23 16:50:00,14.5,1.0,30.14,WSW,250,3.0,8.0,54,0.00,,,0.00,weatherlink.com 1.10,2013-01-23 21:50:00,
2013-01-23 17:05:00,14.4,0.0,30.13,West,259,7.0,8.0,54,0.00,,,0.00,weatherlink.com 1.10,2013-01-23 22:05:00,
2013-01-23 17:22:00,14.1,0.0,30.12,SW,229,3.0,5.0,53,0.00,,,0.00,weatherlink.com 1.10,2013-01-23 22:22:00,
2013-01-23 17:51:00,13.6,0.0,30.12,SW,230,1.0,3.0,55,0.00,,,0.00,weatherlink.com 1.10,2013-01-23 22:51:00,
2013-01-23 18:07:00,13.3,0.0,30.12,SW,222,2.0,3.0,55,0.00,,,0.00,weatherlink.com 1.10,2013-01-23 23:07:00,
2013-01-23 18:22:00,13.2,0.0,30.11,SW,224,2.0,3.0,56,0.00,,,0.00,weatherlink.com 1.10,2013-01-23 23:22:00,
2013-01-23 18:37:00,12.9,0.0,30.11,SW,225,2.0,3.0,57,0.00,,,0.00,weatherlink.com 1.10,2013-01-23 23:37:00,
2013-01-23 18:52:00,12.9,1.0,30.11,West,260,4.0,6.0,58,0.00,,,0.00,weatherlink.com 1.10,2013-01-23 23:52:00,
2013-01-23 19:07:00,13.2,0.0,30.11,WNW,284,2.0,8.0,57,0.00,,,0.00,weatherlink.com 1.10,2013-01-24 00:07:00,
2013-01-23 19:21:00,13.3,0.0,30.11,West,269,2.0,7.0,56,0.00,,,0.00,weatherlink.com 1.10,2013-01-24 00:21:00,
2013-01-23 19:37:00,13.3,0.0,30.10,WNW,297,3.0,7.0,55,0.00,,,0.00,weatherlink.com 1.10,2013-01-24 00:37:00,
2013-01-23 19:51:00,13.3,0.0,30.10,WNW,298,5.0,7.0,56,0.00,,,0.00,weatherlink.com 1.10,2013-01-24 00:51:00,
2013-01-23 20:06:00,13.3,0.0,30.10,WNW,282,2.0,5.0,55,0.00,,,0.00,weatherlink.com 1.10,2013-01-24 01:06:00,
2013-01-23 20:21:00,13.1,0.0,30.10,West,266,2.0,3.0,55,0.00,,,0.00,weatherlink.com 1.10,2013-01-24 01:21:00,
2013-01-23 20:36:00,13.1,0.0,30.10,WSW,252,1.0,3.0,56,0.00,,,0.00,weatherlink.com 1.10,2013-01-24 01:36:00,
2013-01-23 20:51:00,13.1,0.0,30.10,WSW,249,0.0,2.0,57,0.00,,,0.00,weatherlink.com 1.10,2013-01-24 01:51:00,
2013-01-23 21:07:00,13.1,1.0,30.10,SW,225,1.0,3.0,58,0.00,,,0.00,weatherlink.com 1.10,2013-01-24 02:07:00,
2013-01-23 21:22:00,13.1,0.0,30.10,SW,235,1.0,3.0,57,0.00,,,0.00,weatherlink.com 1.10,2013-01-24 02:22:00,
2013-01-23 21:36:00,13.2,1.0,30.10,SW,222,2.0,3.0,58,0.00,,,0.00,weatherlink.com 1.10,2013-01-24 02:36:00,
2013-01-23 21:52:00,13.2,1.0,30.09,South,181,0.0,2.0,59,0.00,,,0.00,weatherlink.com 1.10,2013-01-24 02:52:00,
2013-01-23 22:07:00,13.2,2.0,30.09,SE,142,0.0,0.0,61,0.00,,,0.00,weatherlink.com 1.10,2013-01-24 03:07:00,
2013-01-23 22:22:00,13.3,2.0,30.09,SE,136,0.0,0.0,60,0.00,,,0.00,weatherlink.com 1.10,2013-01-24 03:22:00,
2013-01-23 22:37:00,13.5,2.0,30.08,SW,222,2.0,4.0,59,0.00,,,0.00,weatherlink.com 1.10,2013-01-24 03:37:00,
2013-01-23 22:52:00,13.8,1.0,30.08,South,174,2.0,5.0,56,0.00,,,0.00,weatherlink.com 1.10,2013-01-24 03:52:00,
2013-01-23 23:07:00,13.9,1.0,30.08,SE,135,3.0,5.0,57,0.00,,,0.00,weatherlink.com 1.10,2013-01-24 04:07:00,
2013-01-23 23:22:00,13.9,2.0,30.08,South,170,1.0,4.0,58,0.00,,,0.00,weatherlink.com 1.10,2013-01-24 04:22:00,
2013-01-23 23:37:00,13.9,2.0,30.07,SSW,201,4.0,6.0,59,0.00,,,0.00,weatherlink.com 1.10,2013-01-24 04:37:00,
2013-01-23 23:52:00,13.7,3.0,30.07,South,186,3.0,8.0,62,0.00,,,0.00,weatherlink.com 1.10,2013-01-24 04:52:00,